Weather History for Columbia Airport, CA

Change the Weather History Date:

Tuesday, October 1, 2013

  Actual Average (KMOD) Record (KMOD)
Temperature  
Mean Temperature 60 °F -  
Max Temperature 75 °F 85 °F 99 °F (2001)
Min Temperature 46 °F 56 °F 40 °F (1950)
Degree Days  
Heating Degree Days 4 0  
Month to date heating degree days 0  
Since 1 July heating degree days 3  
Cooling Degree Days 0 6  
Month to date cooling degree days 6  
Year to date cooling degree days 1618  
Growing Degree Days 10 (Base 50)    
Moisture  
Dew Point 47 °F    
Average Humidity 68    
Maximum Humidity 94    
Minimum Humidity 36    
Precipitation  
Precipitation 0.00 in 0.01 in 0.19 in (1976)
Month to date precipitation 0.01  
Year to date precipitation 9.04  
Since 1 July precipitation 0.29  
Snow  
Snow 0.00 in - - ()
Month to date snowfall  
Since 1 July snowfall  
Since 1 September snowfall  
Snow Depth -    
Sea Level Pressure  
Sea Level Pressure 29.98 in    
Wind  
Wind Speed 1 mph (SW)    
Max Wind Speed 8 mph    
Max Gust Speed -    
Visibility 10 miles    
Events      
T = Trace of Precipitation, MM = Missing Value Source: NWS Daily Summary

Daily Weather History Graph

Daily Weather History Graph

Search for Another Location

Airport:

Trip Planner

Search our weather history database for the weather conditions in past years. The results will help you decide how hot, cold, wet, or windy it might be!

Date:

Astronomy

Oct. 01, 2013 Rise Set
Actual Time 6:57 AM PDT 6:44 PM PDT
Civil Twilight 6:31 AM PDT 7:10 PM PDT
Nautical Twilight 6:00 AM PDT 7:40 PM PDT
Astronomical Twilight 5:30 AM PDT 8:11 PM PDT
Moon 3:39 AM PDT (10/1) 4:48 PM PDT (10/1)
Length of Visible Light 12h 38m
Length of Day
11h 46m
Waning Crescent, 11% of the Moon is Illuminated
Oct 1
Waning Crescent
Oct 4
New
Oct 11
First Quarter
Oct 18
Full
Oct 26
Last Quarter

Hourly Weather History & Observations

Time (PDT) Temp. Dew Point Humidity Pressure Visibility Wind Dir Wind Speed Gust Speed Precip Events Conditions
12:15 AM 51.8 °F 48.2 °F 88% 29.99 in 10.0 mi Calm Calm - N/A   Clear
12:35 AM 50.0 °F 48.2 °F 94% 29.99 in 10.0 mi Calm Calm - N/A   Clear
12:55 AM 50.0 °F 48.2 °F 94% 29.99 in 10.0 mi Calm Calm - N/A   Clear
1:15 AM 50.0 °F 48.2 °F 94% 29.99 in 10.0 mi Calm Calm - N/A   Clear
1:35 AM 50.0 °F 48.2 °F 94% 30.00 in 10.0 mi Calm Calm - N/A   Clear
1:55 AM 50.0 °F 48.2 °F 94% 30.00 in 10.0 mi Calm Calm - N/A   Clear
2:15 AM 50.0 °F 46.4 °F 87% 29.99 in 10.0 mi Calm Calm - N/A   Clear
2:35 AM 50.0 °F 46.4 °F 87% 29.99 in 10.0 mi Calm Calm - N/A   Clear
2:55 AM 48.2 °F 46.4 °F 93% 29.98 in 10.0 mi Calm Calm - N/A   Clear
3:15 AM 48.2 °F 46.4 °F 93% 29.98 in 10.0 mi Calm Calm - N/A   Clear
3:35 AM 48.2 °F 46.4 °F 93% 29.98 in 10.0 mi Calm Calm - N/A   Clear
3:55 AM 48.2 °F 46.4 °F 93% 29.98 in 10.0 mi Calm Calm - N/A   Clear
4:15 AM 48.2 °F 46.4 °F 93% 29.98 in 10.0 mi Calm Calm - N/A   Clear
4:35 AM 48.2 °F 46.4 °F 93% 29.98 in 10.0 mi Calm Calm - N/A   Clear
4:55 AM 48.2 °F 46.4 °F 93% 29.98 in 10.0 mi Calm Calm - N/A   Clear
5:15 AM 48.2 °F 46.4 °F 93% 29.98 in 10.0 mi Calm Calm - N/A   Clear
5:35 AM 46.4 °F 44.6 °F 93% 29.98 in 10.0 mi Calm Calm - N/A   Clear
5:55 AM 46.4 °F 44.6 °F 93% 29.98 in 10.0 mi Calm Calm - N/A   Clear
6:15 AM 48.2 °F 46.4 °F 93% 29.98 in 10.0 mi Calm Calm - N/A   Clear
6:35 AM 46.4 °F 44.6 °F 93% 29.98 in 10.0 mi Calm Calm - N/A   Clear
6:55 AM 48.2 °F 46.4 °F 93% 29.98 in 10.0 mi Calm Calm - N/A   Clear
7:15 AM 46.4 °F 44.6 °F 93% 29.99 in 10.0 mi Calm Calm - N/A   Clear
7:35 AM 46.4 °F 44.6 °F 93% 29.99 in 10.0 mi Calm Calm - N/A   Clear
7:55 AM 48.2 °F 46.4 °F 93% 29.99 in 10.0 mi Calm Calm - N/A   Clear
8:15 AM 50.0 °F 48.2 °F 94% 30.00 in 10.0 mi Calm Calm - N/A   Clear
8:35 AM 53.6 °F 48.2 °F 82% 30.00 in 10.0 mi Calm Calm - N/A   Clear
8:55 AM 55.4 °F 50.0 °F 82% 30.01 in 10.0 mi Calm Calm - N/A   Clear
9:15 AM 59.0 °F 50.0 °F 72% 30.01 in 10.0 mi Calm Calm - N/A   Clear
9:35 AM 60.8 °F 48.2 °F 63% 30.01 in 10.0 mi Calm Calm - N/A   Clear
9:55 AM 62.6 °F 48.2 °F 59% 30.02 in 10.0 mi Calm Calm - N/A   Clear
10:15 AM 64.4 °F 48.2 °F 56% 30.01 in 10.0 mi Calm Calm - N/A   Clear
10:35 AM 66.2 °F 48.2 °F 52% 30.01 in 10.0 mi Calm Calm - N/A   Clear
10:55 AM 68.0 °F 48.2 °F 49% 30.01 in 10.0 mi Calm Calm - N/A   Clear
11:15 AM 68.0 °F 48.2 °F 49% 30.01 in 10.0 mi Calm Calm - N/A   Clear
11:35 AM 69.8 °F 48.2 °F 46% 30.01 in 10.0 mi Calm Calm - N/A   Clear
11:55 AM 69.8 °F 48.2 °F 46% 30.01 in 10.0 mi South 3.5 mph - N/A   Clear
12:15 PM 71.6 °F 48.2 °F 43% 30.00 in 10.0 mi South 3.5 mph - N/A   Clear
12:35 PM 73.4 °F 48.2 °F 41% 30.00 in 10.0 mi SSW 3.5 mph - N/A   Clear
12:55 PM 73.4 °F 48.2 °F 41% 29.99 in 10.0 mi SW 4.6 mph - N/A   Clear
1:15 PM 73.4 °F 50.0 °F 44% 29.99 in 10.0 mi SSW 5.8 mph - N/A   Clear
1:35 PM 75.2 °F 50.0 °F 41% 29.99 in 10.0 mi SW 4.6 mph - N/A   Clear
1:55 PM 75.2 °F 48.2 °F 38% 29.98 in 10.0 mi WSW 4.6 mph - N/A   Clear
2:15 PM 75.2 °F 48.2 °F 38% 29.98 in 10.0 mi West 8.1 mph - N/A   Clear
2:35 PM 75.2 °F 46.4 °F 36% 29.97 in 10.0 mi SSW 4.6 mph - N/A   Clear
2:55 PM 75.2 °F 46.4 °F 36% 29.97 in 10.0 mi SW 3.5 mph - N/A   Clear
3:15 PM 75.2 °F 46.4 °F 36% 29.97 in 10.0 mi WSW 6.9 mph - N/A   Clear
3:35 PM 75.2 °F 46.4 °F 36% 29.97 in 10.0 mi West 5.8 mph - N/A   Clear
3:55 PM 75.2 °F 46.4 °F 36% 29.96 in 10.0 mi West 6.9 mph - N/A   Clear
4:15 PM 75.2 °F 46.4 °F 36% 29.96 in 10.0 mi West 3.5 mph - N/A   Clear
4:35 PM 75.2 °F 46.4 °F 36% 29.96 in 10.0 mi WSW 6.9 mph - N/A   Clear
4:55 PM 73.4 °F 46.4 °F 38% 29.96 in 10.0 mi SW 3.5 mph - N/A   Clear
5:15 PM 71.6 °F 46.4 °F 41% 29.96 in 10.0 mi West 5.8 mph - N/A   Clear
5:35 PM 71.6 °F 46.4 °F 41% 29.96 in 10.0 mi West 5.8 mph - N/A   Clear
5:55 PM 69.8 °F 46.4 °F 43% 29.95 in 10.0 mi West 4.6 mph - N/A   Clear
6:15 PM 68.0 °F 46.4 °F 46% 29.95 in 10.0 mi Calm Calm - N/A   Clear
6:35 PM 66.2 °F 46.4 °F 49% 29.95 in 10.0 mi Calm Calm - N/A   Clear
6:55 PM 64.4 °F 46.4 °F 52% 29.95 in 10.0 mi Calm Calm - N/A   Clear
7:15 PM 62.6 °F 46.4 °F 55% 29.95 in 10.0 mi Calm Calm - N/A   Clear
7:35 PM 60.8 °F 46.4 °F 59% 29.95 in 10.0 mi Calm Calm - N/A   Clear
7:55 PM 59.0 °F 46.4 °F 63% 29.95 in 10.0 mi Calm Calm - N/A   Clear
8:15 PM 57.2 °F 46.4 °F 67% 29.95 in 10.0 mi Calm Calm - N/A   Clear
8:35 PM 57.2 °F 46.4 °F 67% 29.95 in 10.0 mi Calm Calm - N/A   Clear
8:55 PM 55.4 °F 44.6 °F 67% 29.95 in 10.0 mi Calm Calm - N/A   Clear
9:15 PM 55.4 °F 46.4 °F 72% 29.96 in 10.0 mi Calm Calm - N/A   Clear
9:35 PM 55.4 °F 46.4 °F 72% 29.96 in 10.0 mi Calm Calm - N/A   Clear
9:55 PM 53.6 °F 44.6 °F 72% 29.96 in 10.0 mi Calm Calm - N/A   Clear
10:15 PM 53.6 °F 44.6 °F 72% 29.95 in 10.0 mi Calm Calm - N/A   Clear
10:35 PM 53.6 °F 44.6 °F 72% 29.95 in 10.0 mi Calm Calm - N/A   Clear
10:55 PM 51.8 °F 44.6 °F 76% 29.95 in 10.0 mi Calm Calm - N/A   Clear
11:15 PM 51.8 °F 44.6 °F 76% 29.95 in 10.0 mi Calm Calm - N/A   Clear
11:35 PM 50.0 °F 44.6 °F 82% 29.95 in 10.0 mi Calm Calm - N/A   Clear
11:55 PM 50.0 °F 44.6 °F 82% 29.95 in 10.0 mi Calm Calm - N/A   Clear